Lid_Strength_Index
3 3 4 3 2 2 1 1 1 1 1 1 1 1 1 1 0 0 -0 -1 -0 0 0 -0 -0 0 1 0 0 0 1 1 0 2 2 1 1 1 0 0 1 2 2
5 5 4 3 2 2 2 1 1 1 1 1 1 1 1 0 0 -0 -0 -0 -1 -0 0 0 -0 -0 0 0 0 0 1 1 1 2 3 5 3 1 1 1 2 3 2
5 6 4 3 2 2 2 2 1 1 1 1 0 0 0 0 1 1 0 0 -0 -0 -0 -0 0 -0 0 1 0 0 1 2 1 1 3 5 6 4 2 2 2 3 3
5 5 5 4 3 2 2 1 1 1 1 0 1 1 2 3 1 1 1 0 -0 0 -0 -1 -0 -0 -0 1 0 0 1 2 3 1 1 1 2 5 6 2 3 3 3
5 5 5 4 3 2 2 1 1 1 1 1 1 1 2 1 1 1 1 0 -0 -0 1 -0 -0 -0 0 -0 0 0 1 1 1 2 2 2 2 2 4 6 4 4 3
5 5 5 4 3 2 2 1 2 1 1 1 1 1 2 2 2 1 1 1 0 0 0 -0 -0 -0 -0 0 0 0 0 1 1 1 1 2 3 3 4 5 5 5 4
5 5 6 5 4 3 2 2 2 2 1 1 1 1 1 1 2 1 1 1 1 1 0 0 0 -0 -0 -0 -0 0 0 0 1 1 1 1 2 2 2 4 4 5 4
5 5 5 4 4 3 2 2 2 2 1 1 1 1 1 1 2 1 1 1 1 1 -0 -0 -0 -0 -0 -0 0 0 0 0 1 1 1 1 1 1 2 3 4 6 4
6 5 5 4 4 3 3 2 2 2 2 1 1 1 1 1 2 1 0 1 0 0 0 0 1 -0 -0 1 0 0 0 0 1 1 1 1 1 1 1 1 3 4 6
5 5 5 4 4 3 3 2 2 2 2 1 1 1 1 1 1 1 1 1 0 0 0 1 1 0 0 0 -0 0 0 1 1 0 1 1 1 2 1 2 1 3 3
5 5 5 4 3 2 2 2 2 2 2 1 1 1 1 1 1 1 1 1 0 0 0 0 0 1 0 0 0 0 1 1 1 0 1 1 0 1 1 1 2 2 2
5 5 4 4 3 3 2 2 2 2 1 1 1 1 1 1 1 1 1 0 1 0 0 0 0 0 0 0 1 1 1 1 1 1 1 1 1 1 2 1 2 2 3
5 5 4 4 4 3 3 3 2 2 1 1 1 1 1 1 1 1 1 0 0 1 0 0 1 1 0 1 0 1 1 2 1 1 2 1 1 1 1 2 2 2 3
6 5 5 5 4 4 3 3 2 2 2 1 1 1 1 1 1 1 1 1 0 1 1 1 1 1 1 0 1 1 1 1 1 2 2 1 1 1 1 2 2 3 3
7 7 7 6 5 5 5 4 3 3 3 3 2 2 2 1 1 1 1 1 1 1 1 1 1 0 1 1 1 1 2 2 2 2 2 1 0 1 1 2 3 3 3
7 7 7 6 5 4 4 3 2 2 1 3 4 3 3 1 1 1 1 1 1 1 1 1 1 1 1 3 3 2 2 2 2 3 2 1 1 2 2 2 3 2 2
6 5 5 5 4 4 3 3 3 1 2 2 2 2 2 2 1 1 1 1 1 1 1 1 1 1 1 5 5 5 2 2 2 2 3 2 1 1 2 3 3 2 2
6 4 4 4 3 3 3 2 2 2 2 2 2 1 1 2 1 1 1 1 1 1 1 1 1 1 1 6 7 6 2 2 2 3 2 2 2 1 2 3 2 1 0
6 6 5 4 4 3 3 3 3 3 2 2 2 1 1 2 1 2 2 1 1 1 1 1 1 1 1 9 9 6 4 3 3 2 2 3 3 4 5 3 2 2 1
5 5 5 5 5 5 4 5 4 4 4 2 2 1 1 1 1 1 2 1 1 2 1 1 1 4 8 10 9 5 3 3 3 3 3 4 4 6 6 3 2 3 2
6 5 6 6 6 5 5 5 5 5 4 3 2 1 1 1 1 1 1 1 1 2 2 4 5 6 7 7 9 7 2 2 2 2 3 2 6 7 7 6 3 3 2
7 6 7 6 6 5 6 6 6 5 4 3 1 1 1 1 1 1 1 1 2 2 2 4 5 5 5 7 7 8 5 4 2 2 2 2 7 9 8 6 6 6 4
6 5 5 5 4 4 4 4 4 3 3 2 2 2 1 1 1 2 2 2 2 2 2 3 4 4 5 3 8 9 10 8 2 1 3 6 9 9 8 7 7 6 3
6 5 5 5 5 4 3 3 3 2 2 3 2 2 2 2 1 1 1 2 2 3 3 3 3 4 4 4 3 4 4 5 3 4 4 6 6 6 4 4 5 2 3
5 5 5 5 5 4 4 3 3 3 3 3 2 2 2 2 2 2 2 2 2 2 2 2 2 3 4 4 6 5 3 3 3 5 6 6 5 5 4 4 3 3 3
6 6 5 5 5 4 4 3 2 2 3 3 2 2 2 2 2 2 2 4 5 8 9 10 9 4 7 10 10 11 10 10 9 3 5 6 6 4 4 4 4 3 3